Theta_e
309 307 310 325 337 342 343 343 343 342 341 339 337 338 336 340 339 339 338 340 339 337 334 332 333 331 329 328 327 326 325 323
305 306 311 326 336 340 341 341 342 341 339 337 336 335 334 334 338 336 337 338 338 336 333 331 331 330 330 329 324 322 317 311
307 307 309 320 335 339 340 341 341 341 341 340 337 336 334 335 337 337 339 338 339 337 333 332 330 321 320 318 312 309 308 307
306 311 312 311 332 337 339 340 341 341 342 337 334 332 332 332 335 335 337 338 338 336 329 324 320 312 309 308 307 306 303 303
305 311 312 313 325 337 340 340 341 341 340 337 334 333 331 330 331 334 332 326 321 318 315 313 311 308 306 306 307 304 304 300
304 310 315 317 318 334 339 340 340 339 337 337 334 332 328 331 329 330 320 315 315 314 312 310 309 309 307 304 305 306 305 303
304 306 314 317 316 328 337 338 339 338 337 335 334 330 326 326 326 321 314 311 310 310 310 309 309 308 305 305 305 302 305 302
301 301 308 314 320 331 334 336 335 336 334 332 331 327 326 325 321 316 309 307 307 306 308 307 307 306 306 306 304 304 303 302
301 303 304 313 321 330 333 334 334 333 332 328 325 323 324 323 319 313 311 307 307 307 306 305 306 305 304 303 302 301 300 299
303 304 306 312 322 329 332 334 332 331 330 323 319 321 319 316 312 311 307 307 306 306 305 305 302 302 302 300 299 299 296 296
303 303 311 321 326 327 329 330 329 328 324 320 315 313 313 309 309 306 306 305 306 304 304 302 301 300 298 298 295 294 294 294
303 305 314 323 325 323 323 323 324 320 319 314 311 308 308 307 306 304 304 304 303 303 300 300 297 297 296 293 293 293 292 292
302 305 316 322 322 320 318 318 317 316 314 309 307 307 306 305 304 304 304 302 302 301 299 298 297 293 293 292 291 292 291 290
302 308 317 319 318 317 315 313 311 310 308 306 305 305 304 303 303 303 302 300 299 298 297 295 293 292 291 291 291 290 289 289
302 309 314 316 317 316 312 310 308 306 305 305 303 302 302 302 302 301 299 298 296 295 293 292 291 291 291 290 289 287 287 288
301 306 311 313 314 313 310 307 306 305 303 302 301 300 300 301 299 298 297 296 295 292 291 290 290 290 289 288 287 286 285 287
302 304 310 313 314 310 308 306 304 304 302 300 300 299 298 297 296 295 294 292 290 289 288 288 287 289 289 289 287 284 286 286
304 304 310 314 314 311 306 305 304 303 301 299 299 298 293 294 293 292 289 287 287 285 286 286 285 286 289 289 287 286 286 286
305 307 310 312 314 311 306 304 303 301 299 296 296 294 290 289 289 287 285 285 284 285 285 283 285 285 289 288 287 286 286 286
Wind_Speed
13 11 8 14 17 19 19 16 17 16 10 8 4 8 6 8 7 7 8 7 8 6 4 5 5 5 4 4 4 3 2 2
9 9 9 12 15 17 19 18 16 13 11 11 9 11 7 5 6 7 7 7 8 8 4 5 4 5 5 5 2 3 1 2
10 8 7 17 19 19 19 19 19 16 12 11 6 8 5 6 6 7 9 10 10 9 8 6 6 4 4 4 3 3 2 2
8 7 11 7 18 20 21 22 22 20 16 9 5 5 4 4 7 5 4 7 8 8 7 6 5 5 5 3 4 5 3 1
7 9 9 10 16 18 20 21 21 19 18 16 19 14 12 6 6 5 4 6 7 7 8 7 7 5 6 4 4 3 3 3
9 11 14 14 12 16 18 19 19 18 18 18 15 13 6 8 7 9 8 6 8 9 9 8 7 5 5 6 5 4 2 3
9 8 11 14 7 9 14 16 17 17 18 17 19 16 12 11 10 8 7 7 6 7 8 7 7 7 6 5 5 4 3 3
8 6 8 9 9 12 12 16 17 18 18 16 15 14 15 16 14 11 12 8 5 7 9 7 4 5 5 5 6 4 3 3
9 10 9 14 16 16 16 18 16 15 15 12 10 11 8 9 13 12 12 10 8 8 9 10 8 7 6 5 4 4 3 4
12 11 10 10 13 16 19 19 16 15 14 12 11 11 11 11 10 11 9 10 9 11 10 10 7 7 6 6 4 4 4 4
11 11 10 12 14 13 14 16 18 16 14 13 12 12 12 11 12 13 12 10 10 11 10 9 7 6 7 6 5 4 5 2
12 10 9 11 12 15 16 16 17 16 15 13 13 11 12 13 13 12 12 12 10 10 9 9 8 8 7 6 6 5 4 2
8 8 9 12 14 14 15 14 15 14 13 12 13 13 14 14 14 14 14 14 11 12 10 9 9 7 6 6 6 5 4 2
6 2 9 12 11 12 13 13 13 13 13 14 13 14 14 14 13 13 12 12 11 9 9 9 7 6 6 5 5 5 4 1
6 5 7 8 10 11 12 14 14 15 15 15 15 14 14 13 14 12 11 11 11 9 8 8 7 6 6 6 5 4 2 1
8 9 8 7 10 10 9 9 11 13 15 16 15 14 14 15 14 13 12 11 10 9 9 7 6 6 5 6 4 4 3 1
7 8 10 12 14 14 14 14 15 15 15 14 14 15 14 13 13 12 11 11 9 8 7 7 7 4 10 10 6 3 3 1
17 10 12 15 16 15 17 19 16 17 16 15 15 15 14 14 13 12 11 10 8 7 7 7 6 5 9 9 7 3 1 1
19 18 13 15 16 16 12 15 16 17 17 16 15 15 14 12 12 11 9 8 8 8 6 5 6 3 8 8 7 3 2 1
Wind_Direction
263 253 211 186 178 177 175 176 179 176 168 161 151 174 176 168 170 180 174 182 179 173 178 174 169 160 163 169 167 181 172 212
264 249 188 177 170 168 176 170 174 166 170 171 177 188 181 170 171 175 181 179 181 170 168 163 167 168 178 175 140 151 73 65
250 221 186 173 172 177 174 178 171 177 177 180 178 176 190 173 160 177 183 182 181 170 161 172 160 130 139 134 130 111 96 28
235 188 187 207 177 180 182 180 178 179 172 150 122 108 106 152 177 172 168 164 162 163 142 140 133 123 134 123 118 124 143 26
214 201 187 200 204 185 183 179 178 178 168 165 170 176 176 185 165 152 129 126 120 119 117 124 127 125 127 127 124 124 122 154
222 201 200 206 196 188 186 182 179 175 174 173 170 176 165 143 136 145 132 118 128 130 128 126 119 114 118 122 110 108 94 113
261 217 211 212 186 177 183 179 178 170 175 173 177 166 152 150 153 148 149 137 132 128 121 120 119 125 113 106 104 104 126 110
270 273 216 218 190 175 170 174 176 174 172 169 170 166 159 159 158 155 150 147 148 141 130 111 106 98 97 106 108 96 84 103
244 256 225 213 201 180 172 173 170 170 165 155 150 152 165 164 164 159 159 159 146 138 129 123 129 117 112 108 102 116 122 107
245 248 240 202 191 185 172 173 168 164 157 149 155 159 162 162 152 155 150 137 135 133 125 123 124 125 116 118 108 106 104 81
256 254 207 187 176 170 165 166 171 164 152 159 163 160 155 151 150 145 132 125 128 128 126 122 116 114 111 113 108 117 100 97
245 236 212 183 169 167 167 166 164 163 166 163 158 152 149 148 139 127 130 123 120 125 121 120 119 124 115 115 125 116 118 130
272 208 167 172 174 167 170 164 164 167 160 150 151 144 144 140 135 135 136 135 141 131 131 122 123 116 123 125 125 130 133 121
317 235 194 173 179 173 167 163 160 156 151 147 148 150 147 142 136 132 128 125 114 112 117 119 119 123 127 125 127 126 118 166
241 223 224 186 178 178 171 166 162 158 152 151 149 149 141 134 128 124 119 117 116 115 115 123 130 132 124 119 120 126 146 152
217 219 208 192 168 167 165 160 159 155 152 152 149 138 132 131 129 124 120 120 118 120 123 122 129 127 132 129 143 167 132 116
242 228 192 190 185 180 170 165 164 160 155 148 140 134 131 128 122 120 119 114 116 119 123 133 133 130 142 132 161 161 117 216
257 210 197 197 192 179 180 174 161 158 149 145 144 139 132 131 128 126 128 131 127 130 134 135 138 145 143 142 148 136 172 230
254 250 214 205 191 186 162 161 161 155 147 141 141 139 133 131 130 131 125 131 130 131 137 143 144 166 150 152 119 145 163 264